Location: TAAA CAC
(31.8680°N, 109.5150°W)
Time: 21:07:19
(UTC-07:00)

BlueWalker 3 - Pass Details

Date: 19 March 2026
Orbit: 449 x 457 km, 53.2° (Epoch: 20 April)

Event Time Altitude Azimuth Distance (km) Brightness Sun altitude
Rises 20:26:19 0° 226° (SW) 2,445 5.8 -25.4°
Reaches altitude 10° 20:28:26 10° 228° (SW) 1,578 4.8 -25.8°
Enters shadow 20:29:35 19° 231° (SW) 1,124 4.0 -26.0°
